Time,TemperatureF,DewpointF,PressureIn,WindDirection,WindDirectionDegrees,WindSpeedMPH,WindSpeedGustMPH,Humidity,HourlyPrecipIn,Conditions,Clouds,dailyrainin,SoftwareType,DateUTC
2013-09-14 12:11:00,60.0,60.0,25.83,NW,324,1.0,2.0,100,0.00,,,0.00,,2013-09-14 19:11:00,
2013-09-14 12:22:00,60.0,60.0,25.83,NW,317,1.0,4.0,100,0.00,,,0.00,,2013-09-14 19:22:00,
2013-09-14 12:52:00,59.0,59.0,25.83,NW,317,2.0,5.0,100,0.00,,,0.00,,2013-09-14 19:52:00,
2013-09-14 13:12:00,59.0,59.0,25.83,NW,314,1.0,3.0,100,0.00,,,0.00,,2013-09-14 20:12:00,
2013-09-14 13:22:00,59.0,59.0,25.83,NW,314,1.0,3.0,100,0.00,,,0.00,,2013-09-14 20:22:00,
2013-09-14 13:52:00,60.0,60.0,25.83,West,281,2.0,5.0,99,0.00,,,0.00,,2013-09-14 20:52:00,
2013-09-14 14:11:00,59.0,59.0,25.83,WSW,250,1.0,2.0,99,0.00,,,0.00,,2013-09-14 21:11:00,
2013-09-14 14:22:00,59.0,59.0,25.83,WSW,250,1.0,2.0,99,0.00,,,0.00,,2013-09-14 21:22:00,
2013-09-14 14:44:00,59.0,59.0,25.83,NNW,330,2.0,4.0,99,0.00,,,0.00,,2013-09-14 21:44:00,
2013-09-14 14:54:00,59.0,59.0,25.83,NNW,330,2.0,4.0,99,0.00,,,0.00,,2013-09-14 21:54:00,
2013-09-14 15:24:00,59.0,59.0,25.83,NNW,338,0.0,3.0,99,0.00,,,0.00,,2013-09-14 22:24:00,
2013-09-14 15:53:00,58.0,58.0,25.83,SSW,206,2.0,6.0,99,0.00,,,0.00,,2013-09-14 22:53:00,
2013-09-14 16:03:00,58.0,58.0,25.83,SSW,206,2.0,6.0,99,0.00,,,0.00,,2013-09-14 23:03:00,
2013-09-14 16:11:00,58.0,58.0,25.83,SSW,206,2.0,6.0,99,0.00,,,0.00,,2013-09-14 23:11:00,
2013-09-14 16:23:00,57.0,57.0,25.83,South,184,5.0,10.0,99,0.00,,,0.00,,2013-09-14 23:23:00,
2013-09-14 16:42:00,56.0,56.0,25.83,South,188,3.0,8.0,99,0.00,,,0.00,,2013-09-14 23:42:00,
2013-09-14 16:53:00,56.0,56.0,25.83,South,188,3.0,8.0,99,0.00,,,0.00,,2013-09-14 23:53:00,
2013-09-14 17:12:00,56.0,56.0,25.83,South,190,3.0,10.0,99,0.00,,,0.00,,2013-09-15 00:12:00,
2013-09-14 17:22:00,56.0,56.0,25.83,South,187,3.0,9.0,99,0.00,,,0.00,,2013-09-15 00:22:00,
2013-09-14 17:42:00,56.0,56.0,25.83,South,178,2.0,6.0,99,0.00,,,0.00,,2013-09-15 00:42:00,
2013-09-14 17:53:00,56.0,56.0,25.83,South,178,2.0,6.0,99,0.00,,,0.00,,2013-09-15 00:53:00,
2013-09-14 18:11:00,56.0,56.0,25.83,SSW,207,3.0,8.0,100,0.00,,,0.00,,2013-09-15 01:11:00,
2013-09-14 18:22:00,56.0,56.0,25.83,SSW,207,3.0,8.0,100,0.00,,,0.00,,2013-09-15 01:22:00,
2013-09-14 18:42:00,56.0,56.0,25.83,South,183,2.0,10.0,100,0.00,,,0.00,,2013-09-15 01:42:00,
2013-09-14 18:52:00,56.0,56.0,25.83,SSW,205,2.0,6.0,99,0.00,,,0.00,,2013-09-15 01:52:00,